NOAA 16 DEB, 41146

Orbit data source: Space-Track

NOAA 16 DEB, 41146 is space debris in SSO originally from a launch on Thu, 21 Sep 2000 UTC launched from the Air Force Western Test Range (AFWTR). Debris objects in space refer to the collection of defunct objects orbiting the Earth. Examples of debris include non-operational satellites, rocket bodies, and fragments generated from explosions, collisions, or faulty payload assembly.

Loading next visibility...
Identifier
41146, 2000-055CD
Orbit
SSO
Country
Flag of USUS
Related business
Manufacturer
Unknown
Mission
Spacecraft
Bus & Motor
Unknown
Mass
Unknown
Launch date (UTC)
2000-09-21 (25 years ago)
Launch vehicle
Unknown
Launch site
Air Force Western Test Range (AFWTR)
Object type
Payload
Rocket body
Debris
Shape & HBR
Unknown shape, 0.1 m
Radar Cross Section
Small (<0.1 m²)

Expand to show TLE details & history
Last TLE update: 1 day ago

TLE from 1 day ago
0 NOAA 16 DEB
1 41146U 00055CD  26062.28613160  .00020147  00000-0  48165-2 0  9999
2 41146  98.8241 184.2099 0015480  71.9457 288.3423 14.53546425531080
Epoch: 2026-03-03T06:52Z
TLE epoch observation values (Epoch: 2026-03-03T06:52:01.770Z)
Latitude
0.00002°
Longitude
-79.86485°
Altitude
713.605 km
Speed
7.501 km/s
True Right ascension
12h 16m 50s
True Declination
0° 00' 00"
Sunlit
Object was in full shadow at epoch
Visualization orbit readout
Latitude
Unknown
Longitude
Unknown
Altitude
Unknown
Speed
Unknown
Apparent Right ascension
Unknown
Apparent Declination
Unknown
Sunlit
N/A
Visualization observer readout
Local Sidereal Time
14:56:58
Azimuth
Unknown
Elevation
Unknown
Doppler factor
Unknown
Orbital elements
Apogee altitude
722.183 km
Perigee altitude
700.234 km
Semi-major axis
7,089.346 km
Eccentricity
0.00155
Inclination
98.8241°
RAAN
184.2099°
Arg. of periapsis
71.9457°
True anomaly
288.17382°
Mean anomaly
288.3423°
Eccentric anomaly
288.25807°
Mean motion
3.63608 °/min
Orbital period
99.01 mins
BSTAR
0.0048165
Loading maneuver chart data...
Computing Atmospheric mass density...
Loading historical data...
Loading historical data...
Loading historical data...
Loading historical data...
Loading historical data...
Loading historical data...
Loading historical data...

Documentation

Showing up to 5 results
|